Location: Unspecified
(34.4500°N, 0.0000°E)
Time: 05:55:14
(UTC+00:00)

N. Korean satellite - Visible Passes

Search period start: 04 March 2021 00:00
Search period end: 14 March 2021 00:00
Orbit: 451 x 502 km, 97.2° (Epoch: 03 March)

Date Brightness Start Highest point End Pass type
(mag) Time Alt. Az. Time Alt. Az. Time Alt. Az.
04 Mar 7.8 05:01:59 10° NNE 05:05:23 43° E 05:08:50 10° S visible
05 Mar 9.4 04:35:59 10° NE 04:38:34 19° E 04:41:09 10° SE visible
06 Mar 6.8 05:41:40 10° N 05:45:06 45° WNW 05:48:34 10° SSW visible
07 Mar 6.9 05:14:48 10° NNE 05:18:23 70° E 05:22:00 10° S visible
08 Mar 8.7 04:48:26 10° NE 04:51:35 28° E 04:54:44 10° SSE visible
09 Mar 9.9 04:23:05 10° ENE 04:24:40 12° E 04:26:16 10° ESE visible
10 Mar 6.5 05:27:41 10° N 05:31:18 74° WNW 05:34:56 10° SSW visible
11 Mar 7.9 05:01:03 10° NNE 05:04:31 43° E 05:07:59 10° S visible
12 Mar 9.5 04:35:01 10° NE 04:37:38 19° E 04:40:15 10° SE visible
13 Mar 6.8 05:40:37 10° N 05:44:07 47° WNW 05:47:39 10° SSW visible
